Home > Weather > Valdivia > Past weeks

Flag for Chile Past Weather in Valdivia, Chile — Yesterday and Last 2 Weeks

Now
41 °F

Passing clouds.


Feels Like: 41 °F
Forecast: 41 / 51 °F
Wind: No wind

Location: Puerto Montt Airport

Current Time: Jul 25, 2016 at 12:20:23 AM

Latest Report: Jul 25, 2016 at 12:00 AM


Visibility: N/A

Pressure: 30.04 "Hg

Humidity: 87%

Dew Point: 37 °F

Location of ValdiviaLocation

Past Weather in Valdivia — Graph

°F

Valdivia Temperature Yesterday

Maximum temperature yesterday: 48 °F (at 2:00 PM)
Minimum temperature yesterday: 30 °F (at 5:00 AM)
Average temperature yesterday: 38 °F

High & Low Weather Summary for the Past Weeks

 TemperatureHumidityPressure
High55 °F (Jul 18, 2:00 PM)100% (Jul 12, 10:00 PM)30.33 "Hg (Jul 12, 10:00 PM)
Low28 °F (Jul 23, 8:00 AM)54% (Jul 16, 8:00 PM)29.56 "Hg (Jul 10, 2:00 PM)
Average44 °F89%29.99 "Hg
* Reported Jul 9 11:00 PM — Jul 24 11:00 PM, Valdivia, Weather by CustomWeather, © 2016

Note: Actual official high and low records may vary slightly from our data, if they occured in-between our weather recording intervals... More about our weather records

Advertising

Valdivia Weather History for the Previous 24 Hours

Scroll right to see more
 ConditionsComfort  
Time TempWeatherWind HumidityBarometerVisibility
11:00 PM
Sun, Jul 24
39 °FPassing clouds.2 mph93%30.04 "HgN/A
10:00 PM41 °FFog.1 mph87%30.01 "Hg5 mi
9:00 PM43 °FPassing clouds.2 mph81%30.01 "HgN/A
8:00 PM41 °FPartly cloudy.1 mph87%30.01 "HgN/A
7:00 PM43 °FPassing clouds.2 mph81%30.01 "HgN/A
6:00 PM45 °FPassing clouds.3 mph76%29.98 "HgN/A
5:00 PM46 °FPassing clouds.6 mph71%29.98 "HgN/A
4:00 PM48 °FPartly sunny.6 mph62%29.95 "HgN/A
3:00 PM48 °FBroken clouds.9 mph62%29.95 "HgN/A
2:00 PM48 °FPartly sunny.8 mph62%29.95 "HgN/A
1:00 PM46 °FPartly sunny.No wind87%29.98 "HgN/A
12:00 PM39 °FPartly sunny.5 mph100%29.98 "HgN/A
11:00 AM37 °FFog.3 mph93%29.98 "Hg3 mi
10:00 AM32 °FFog.No wind100%29.98 "Hg2 mi
9:00 AM32 °FChilly.No wind93%29.98 "Hg2 mi
8:00 AM32 °FIce fog.3 mph93%29.98 "Hg1 mi
7:00 AM30 °FPassing clouds.No wind93%29.98 "HgN/A
6:00 AM30 °FClear.3 mph100%29.98 "Hg10 mi
5:00 AM30 °FClear.No wind100%30.01 "Hg10 mi
4:00 AM32 °FClear.No wind93%30.01 "Hg10 mi
3:00 AM32 °FClear.No wind93%30.01 "Hg10 mi
2:00 AM32 °FClear.No wind93%30.04 "Hg10 mi
1:00 AM36 °FClear.No wind93%30.04 "Hg10 mi
12:00 AM36 °FClear.No wind93%30.07 "Hg10 mi
Weather by CustomWeather, © 2016

See weather overviewHow to use our weather pages